EHI
0 0 0 0 0 0 0 0 0 0 0 1 3 3 5 7 8 8 9 10 10 8 9 11 10 8 10 13 17 19 18 15 13 12 11 8 6 4 2 2 3 3 3 3
0 0 0 0 0 0 0 0 0 1 1 2 3 3 4 7 8 8 8 9 9 9 11 13 12 11 12 14 17 19 19 16 13 12 11 9 7 5 4 4 6 5 4 4
0 0 0 0 0 0 0 0 1 2 2 2 2 3 4 6 7 7 7 7 7 8 10 13 15 14 14 14 15 17 18 17 14 11 10 8 6 6 6 7 8 8 7 6
0 0 0 0 0 0 0 0 1 1 1 1 1 1 3 5 6 6 7 6 5 6 7 10 14 15 14 12 12 15 17 18 16 13 10 8 6 5 6 7 9 9 9 8
0 0 0 0 0 0 0 0 0 0 0 0 0 1 3 3 3 5 7 7 6 5 6 8 11 12 10 8 10 15 20 21 20 18 14 10 7 5 5 7 9 10 10 9
0 0 0 0 0 0 0 0 0 0 0 0 0 1 2 3 2 3 5 7 8 7 6 8 11 10 8 7 10 15 23 27 25 22 19 14 10 7 7 8 10 10 9 9
0 0 0 0 0 0 0 0 0 0 0 0 1 1 2 2 1 1 4 8 9 9 7 10 14 13 11 10 12 18 25 28 27 23 21 18 14 11 10 10 11 10 8 7
0 0 0 0 0 0 0 0 0 0 0 0 1 1 2 1 0 0 3 7 10 10 8 9 15 17 14 13 15 19 23 25 25 24 24 23 20 15 13 12 11 10 7 6
0 0 0 0 0 0 0 0 0 0 0 0 0 1 1 0 0 0 2 5 9 10 7 8 14 17 16 15 17 20 22 23 25 27 28 28 25 20 16 14 11 10 9 8
0 0 0 0 0 0 0 0 0 0 0 0 0 0 0 0 0 0 1 4 8 10 8 7 12 15 15 16 19 21 22 24 27 27 27 26 25 23 19 15 11 10 9 9
0 0 0 0 0 0 0 0 0 0 0 0 0 0 0 0 0 0 2 4 8 10 9 8 12 14 14 16 20 22 23 24 26 25 23 22 23 24 21 15 12 10 9 9
0 0 0 0 0 0 0 0 0 0 0 0 0 0 0 0 0 2 5 7 10 13 12 11 14 15 15 18 21 22 22 22 22 23 22 21 22 23 19 14 12 12 11 11
0 0 0 0 0 0 0 0 0 0 0 0 0 0 0 0 1 4 7 10 13 17 17 18 21 22 21 23 26 25 22 19 18 19 20 21 22 20 17 15 15 17 17 16
0 0 0 0 0 0 0 0 0 0 0 0 0 0 0 0 1 4 7 10 13 17 21 24 30 32 29 27 29 26 20 15 14 15 16 18 19 18 18 19 20 21 20 20
0 0 0 0 0 0 0 0 0 0 0 0 0 0 1 1 2 4 7 10 13 18 22 27 34 37 34 30 28 24 17 13 11 12 14 14 16 19 20 21 21 21 21 20
0 0 0 0 0 0 0 0 0 0 0 0 0 0 1 3 5 7 9 12 16 20 22 27 33 36 35 32 29 23 19 16 14 13 12 12 15 18 18 17 18 20 22 23
0 0 0 0 0 0 0 0 0 0 0 0 0 0 1 3 6 8 9 12 17 20 22 26 30 33 32 31 30 27 23 19 17 15 12 13 17 18 17 17 18 21 25 28
0 0 0 0 0 0 0 0 0 0 0 0 0 0 1 3 5 6 7 10 15 19 22 25 26 27 27 28 30 28 24 22 20 18 16 18 22 24 22 22 23 24 28 31
0 0 0 0 0 0 0 0 0 0 0 0 1 1 2 3 3 3 6 9 13 19 23 24 22 20 21 24 27 25 23 23 24 23 22 24 28 29 28 27 27 28 30 31
0 0 0 0 0 0 0 0 0 0 0 1 2 4 6 6 6 7 9 12 15 19 23 23 20 17 18 21 23 22 21 24 27 27 27 29 32 32 30 29 29 29 29 29
0 0 0 0 0 0 0 0 0 1 1 2 5 9 11 12 14 14 15 17 19 20 21 21 20 19 19 21 22 21 19 22 25 26 28 32 33 32 29 28 27 27 27 26
0 0 0 0 0 1 1 1 1 3 3 5 8 11 13 15 18 17 17 19 21 21 21 21 22 21 20 22 25 24 21 20 21 23 27 30 32 29 26 24 22 21 22 21
0 0 0 0 0 1 2 2 3 4 5 6 8 10 13 15 17 16 16 18 20 21 22 22 23 23 22 23 26 26 23 20 21 23 25 27 27 26 23 20 17 16 15 14
0 0 0 1 1 1 2 2 3 4 5 6 8 10 14 16 16 15 15 16 19 21 22 23 24 25 24 24 24 25 25 23 22 23 23 22 20 19 18 17 15 13 12 11
0 0 0 1 1 2 2 2 3 5 6 7 9 12 14 16 16 16 15 16 19 22 22 23 23 24 25 25 22 22 24 23 22 22 21 17 12 12 13 14 12 10 9 10
0 0 0 0 1 2 2 1 2 5 7 9 11 13 14 15 16 17 17 17 20 22 22 22 21 22 23 24 21 20 22 23 23 22 19 13 9 9 10 10 9 7 6 7
Wind_Speed
6 7 4 2 2 4 4 3 2 2 1 2 2 1 3 6 7 7 7 8 8 7 7 7 7 6 7 7 6 6 5 5 4 2 2 2 2 1 1 1 1 1 0 0
8 6 3 3 2 4 5 4 1 1 1 2 2 2 2 5 7 6 6 7 8 8 8 7 7 7 7 7 7 6 6 5 4 2 1 1 0 0 1 0 1 1 1 1
8 1 1 4 5 6 6 5 3 2 2 4 4 4 4 5 6 6 7 6 7 7 8 9 8 8 8 8 8 6 6 5 5 3 3 2 2 2 2 1 1 1 1 1
7 4 5 7 6 7 5 2 4 4 6 3 4 3 4 5 6 7 7 7 7 8 8 8 9 9 9 8 8 7 7 6 5 5 4 4 2 2 1 1 1 1 1 1
6 4 6 7 5 6 3 2 4 6 7 6 5 5 2 5 5 6 7 7 7 7 8 8 8 8 8 8 7 7 7 6 6 5 5 4 3 2 2 1 1 1 2 2
5 4 4 4 3 3 3 5 6 8 8 7 3 6 1 2 2 3 5 7 7 8 8 8 8 8 7 7 7 7 7 7 6 6 6 5 4 3 2 2 2 3 2 2
8 8 6 5 7 7 7 8 6 7 6 3 1 5 1 2 1 2 3 5 7 7 8 8 8 9 8 8 8 7 8 7 7 7 6 5 5 4 4 4 3 3 2 1
9 9 7 6 7 6 7 9 7 6 5 2 4 4 1 2 0 1 2 4 6 7 8 8 8 8 8 9 9 8 8 8 7 6 5 5 5 4 3 3 3 2 2 2
6 5 5 4 5 8 7 7 8 8 8 6 3 2 2 2 3 3 4 5 6 6 7 7 8 8 8 8 8 8 8 7 7 7 6 5 5 4 3 3 3 3 2 2
5 5 6 5 7 4 6 5 6 7 6 7 5 5 2 2 1 2 4 4 5 5 6 7 7 7 7 8 8 8 8 8 7 7 6 5 6 5 4 4 3 2 2 2
7 7 6 7 7 6 7 7 6 6 7 8 5 1 3 0 0 1 1 3 4 4 5 6 6 7 7 7 7 7 8 8 7 7 6 5 5 5 5 4 4 3 3 3
5 7 6 6 3 4 6 7 8 8 6 7 8 1 3 1 1 1 1 1 2 3 4 6 6 7 7 7 7 7 7 7 7 6 6 5 5 5 5 5 4 4 4 4
4 7 8 9 9 8 7 7 8 9 8 8 9 2 4 2 1 1 1 1 2 2 3 5 6 6 6 5 5 6 6 6 6 5 5 5 5 5 5 5 4 4 4 4
6 8 9 8 3 3 6 7 8 10 9 8 8 6 2 2 1 1 1 1 1 2 3 4 5 5 5 4 4 4 4 4 4 5 5 5 5 5 5 5 4 4 4 4
6 9 9 8 6 8 9 9 9 10 10 10 7 6 4 3 2 1 1 0 1 2 3 4 5 5 5 4 4 4 4 4 4 4 5 4 4 4 3 4 4 4 4 4
5 7 8 10 9 10 11 11 11 10 10 9 8 6 2 2 1 1 1 1 1 1 2 3 4 5 5 5 4 4 4 4 5 5 5 4 4 4 4 4 4 4 4 3
5 6 8 9 7 11 13 10 10 9 8 9 9 5 2 3 2 2 2 2 1 1 2 3 4 4 4 5 4 4 4 4 5 5 4 4 4 4 4 4 4 4 4 4
6 7 7 7 7 13 4 2 6 7 7 7 6 4 4 4 3 2 2 2 2 2 2 2 3 3 4 4 4 4 4 5 5 5 4 4 4 4 4 4 4 4 3 3
7 7 7 8 11 10 6 4 5 7 6 4 5 4 4 3 5 3 1 1 1 1 1 2 3 3 3 3 4 4 4 5 5 5 5 4 4 4 4 5 5 4 4 4
7 8 9 9 11 11 2 2 3 7 8 2 4 4 4 4 6 1 2 2 1 1 1 1 2 3 3 2 3 4 4 5 5 4 4 4 4 4 5 5 5 4 4 4
9 9 11 12 11 6 3 1 4 9 1 2 2 3 4 4 4 3 2 2 1 1 1 1 2 3 2 2 3 4 4 5 4 4 4 4 4 5 4 4 4 4 4 3
8 8 9 9 11 5 4 1 3 3 4 3 3 4 4 4 3 3 2 2 2 1 1 2 2 2 2 3 3 4 4 4 3 4 4 4 4 4 3 4 4 4 4 4
6 4 4 5 2 4 2 2 3 4 4 4 4 4 4 4 4 3 2 2 2 2 2 2 2 2 2 3 3 3 3 3 4 4 4 3 3 3 3 4 4 4 4 4
4 3 5 5 4 2 2 2 3 4 4 5 5 5 5 4 4 4 3 2 2 2 2 2 2 2 2 2 2 2 2 3 4 4 3 3 3 3 3 3 3 3 3 3
4 4 6 7 5 5 4 3 4 5 5 5 5 5 5 5 4 4 3 3 2 2 2 2 2 2 2 1 1 2 2 3 3 3 3 3 3 3 2 2 1 2 1 2
6 7 8 6 4 6 5 4 5 5 5 5 5 5 5 5 5 4 3 3 3 3 2 2 2 2 2 1 1 1 2 2 3 3 3 3 3 2 3 2 1 4 3 4
Wind_Direction
205 229 234 261 297 311 302 292 330 40 112 249 255 238 163 178 194 191 190 187 184 183 173 171 179 180 178 176 176 178 178 167 179 183 192 165 157 155 137 136 109 134 84 129
207 223 259 282 263 253 257 256 253 105 117 265 272 258 181 181 198 200 195 192 191 186 178 177 180 180 182 180 182 182 186 183 192 182 198 182 145 182 121 89 109 195 180 223
232 219 215 236 233 243 249 270 288 290 232 218 244 212 180 178 192 197 205 202 198 195 187 182 184 185 186 185 186 186 186 185 194 190 191 182 175 206 172 164 160 185 206 213
234 231 232 235 240 259 252 283 273 255 252 227 258 275 161 180 192 196 202 201 201 195 190 184 183 186 189 188 184 184 184 186 187 189 198 203 203 198 178 206 161 173 202 217
212 219 231 238 251 265 293 291 258 257 263 257 237 270 144 176 206 201 198 199 199 192 188 183 185 184 187 186 184 182 182 186 186 192 196 210 216 207 198 193 160 225 197 216
232 211 247 257 238 236 215 225 224 236 248 247 260 274 232 146 214 211 192 194 196 190 184 180 179 177 183 181 182 181 180 186 187 192 198 208 216 226 238 234 215 223 203 201
208 206 207 232 226 199 223 239 232 226 228 239 202 266 346 32 321 269 204 185 187 183 180 178 179 180 183 184 183 181 179 185 188 192 199 206 213 216 222 241 233 250 252 224
214 202 196 215 241 244 237 259 268 278 278 241 194 251 36 48 8 224 199 177 175 180 181 180 181 182 184 184 184 184 181 185 189 192 194 201 208 219 216 221 249 243 264 270
234 206 167 202 237 251 234 246 277 275 270 270 248 237 191 191 189 178 173 169 173 178 177 178 178 182 182 182 183 184 181 185 190 192 190 195 204 222 227 220 234 246 256 259
250 237 190 181 206 212 266 256 250 261 272 267 242 243 217 188 194 162 166 168 167 174 174 173 175 179 177 177 176 180 182 185 189 193 197 192 199 206 213 227 234 252 262 278
249 241 205 199 219 218 204 218 245 262 274 279 271 289 56 144 271 208 163 156 165 178 175 172 175 174 173 171 171 177 181 186 192 196 197 203 199 198 198 205 217 225 237 237
233 249 237 219 209 261 249 244 242 252 251 261 275 273 86 48 52 40 55 130 161 178 177 172 170 170 173 175 173 175 182 188 191 192 193 198 197 200 205 205 209 215 224 231
216 238 230 210 196 200 226 232 247 260 257 257 262 231 111 118 111 78 65 113 148 171 174 165 164 168 174 177 177 178 184 189 187 185 193 196 198 201 209 215 215 214 214 223
252 244 254 261 271 224 223 225 236 249 253 255 257 265 250 278 284 360 24 75 142 153 168 171 164 167 170 171 175 183 187 190 187 187 194 198 205 207 210 213 216 216 213 213
249 243 244 260 264 253 249 246 238 244 262 270 270 268 275 293 315 344 344 80 109 127 157 169 169 165 171 173 179 185 188 190 193 192 198 199 200 199 204 208 212 214 216 219
246 258 246 242 239 249 251 244 242 242 249 253 259 263 273 268 265 242 235 201 151 152 163 170 174 173 175 180 189 184 188 191 191 198 206 203 201 200 203 206 209 208 211 220
233 239 249 245 233 247 242 235 236 235 242 251 255 266 255 259 277 279 259 239 233 226 196 185 183 182 181 184 187 189 187 191 192 199 206 204 205 204 206 209 204 210 213 214
238 244 246 250 235 243 243 219 241 242 245 253 259 257 253 268 270 278 289 277 256 250 241 206 198 190 188 184 178 185 186 190 195 201 204 203 203 201 198 201 204 208 212 215
233 232 246 246 240 244 221 207 232 240 241 247 253 247 253 273 248 199 136 297 292 294 282 222 201 191 181 179 176 183 188 191 198 202 205 204 203 203 204 206 206 207 209 216
201 223 242 239 250 251 203 120 243 245 230 210 249 255 264 265 254 190 42 340 314 318 319 234 201 190 182 184 187 196 201 201 204 204 208 208 206 208 213 212 211 208 207 213
197 210 231 240 247 248 61 60 220 235 243 41 294 282 269 262 295 332 333 318 304 305 280 227 207 207 199 197 199 207 211 217 215 210 212 213 211 212 210 209 209 210 213 213
229 224 224 237 245 232 76 189 262 355 8 336 317 305 296 296 289 284 289 293 293 294 262 232 218 217 209 204 204 210 216 222 216 210 213 215 217 224 200 194 204 211 217 218
244 277 266 257 281 62 58 20 9 346 331 323 314 306 297 287 283 280 277 287 294 293 270 241 234 217 209 213 217 217 210 206 206 205 208 212 210 210 205 202 206 208 212 231
208 271 262 255 229 256 281 294 317 323 321 317 311 303 299 292 288 288 289 286 285 293 280 252 245 246 232 220 224 227 204 200 202 201 199 202 202 201 200 214 223 230 233 239
267 243 245 247 257 262 243 289 308 311 308 308 310 302 301 293 290 289 285 279 276 277 279 262 252 256 249 243 233 226 193 194 198 192 198 209 210 199 195 209 296 272 304 326
240 249 257 266 270 272 272 285 295 294 297 303 302 298 296 295 296 292 282 277 279 276 274 265 264 272 271 256 246 232 191 192 199 194 200 214 217 202 205 189 150 53 44 53